[Date Prev][Date Next][Thread Prev][Thread Next] - [Date Index][Thread Index][Author Index]

International Space Station Orbital Data



Below is the Keplerian Elements for the ISS Zarya (FGB).  The TLE was 
released by NASA Goddard Space Flight Center (GSFC) Orbital Information 
Group (OIG).

Zarya (FGB) Launch: 1998-NOV-20 / 06:40 UTC

ISS
1 25544U 98067A   98324.45674522 -.00043259  11566-4 -18040-4 0    32
2 25544  51.5914 167.4317 0125858  91.3429 269.4598 16.05134416    30

Satellite: ISS 
Catalog number: 25544
Epoch time:      98324.45674522
Element set:       3
Inclination:       51.5914 deg
RA of node:       167.4317 deg
Eccentricity:    0.0125858
Arg of perigee:    91.3429 deg
Mean anomaly:     269.4598 deg
Mean motion:   16.05134416 rev/day
Decay rate:    -4.3259e-04 rev/day^2
Epoch rev:               3
Checksum:              300

Ken Ernandes
n2wwd@amsat.org
http://www.mindspring.com/~n2wwd


----
Via the sarex mailing list at AMSAT.ORG courtesy of AMSAT-NA.
To unsubscribe, send "unsubscribe sarex" to Majordomo@amsat.org



AMSAT Top AMSAT Home